| time (UTC) | temp C | wind direction | speed KPH | gust KPH | rain 1hr cm | rain 24hr cm | rain mn cm | humidity % | barometer mb |
| 20260506155754 | 29 | 167 | 11.3 | 19.3 | 0.00 | 0.00 | 0.00 | 59 | 1017.1 |
| 20260506155554 | 29 | 167 | 11.3 | 19.3 | 0.00 | 0.00 | 0.00 | 59 | 1017.1 |
| 20260506155256 | 29 | 180 | 11.3 | 20.9 | 0.00 | 0.00 | 0.00 | 59 | 1017.1 |
| 20260506155054 | 29 | 180 | 11.3 | 20.9 | 0.00 | 0.00 | 0.00 | 59 | 1017.1 |
| 20260506154554 | 28 | 246 | 11.3 | 17.7 | 0.00 | 0.00 | 0.00 | 57 | 1017.0 |
| 20260506154054 | 28 | 161 | 12.9 | 25.7 | 0.00 | 0.00 | 0.00 | 58 | 1017.1 |
| 20260506153554 | 28 | 178 | 12.9 | 24.1 | 0.00 | 0.00 | 0.00 | 59 | 1017.3 |
| 20260506153510 | 28 | 202 | 12.9 | 22.5 | 0.00 | 0.00 | 0.00 | 60 | 1017.3 |
| 20260506153054 | 28 | 202 | 12.9 | 22.5 | 0.00 | 0.00 | 0.00 | 60 | 1017.3 |
| 20260506152554 | 28 | 216 | 16.1 | 24.1 | 0.00 | 0.00 | 0.00 | 60 | 1017.3 |
| 20260506152440 | 28 | 175 | 16.1 | 24.1 | 0.00 | 0.00 | 0.00 | 59 | 1017.3 |
| 20260506152054 | 28 | 175 | 16.1 | 24.1 | 0.00 | 0.00 | 0.00 | 59 | 1017.3 |
| 20260506151554 | 28 | 167 | 12.9 | 24.1 | 0.00 | 0.00 | 0.00 | 60 | 1017.2 |
| 20260506151250 | 28 | 171 | 9.7 | 17.7 | 0.00 | 0.00 | 0.00 | 64 | 1017.3 |
| 20260506151148 | 28 | 171 | 9.7 | 17.7 | 0.00 | 0.00 | 0.00 | 64 | 1017.3 |
| 20260506151054 | 28 | 171 | 9.7 | 17.7 | 0.00 | 0.00 | 0.00 | 64 | 1017.3 |
| 20260506151029 | 27 | 205 | 9.7 | 14.5 | 0.00 | 0.00 | 0.00 | 69 | 1017.1 |
| 20260506150554 | 27 | 41 | 9.7 | 17.7 | 0.00 | 0.00 | 0.00 | 68 | 1017.0 |
| 20260506150428 | 27 | 173 | 9.7 | 19.3 | 0.00 | 0.00 | 0.00 | 67 | 1017.0 |
| 20260506150310 | 27 | 173 | 9.7 | 19.3 | 0.00 | 0.00 | 0.00 | 67 | 1017.0 |
| 20260506150054 | 27 | 173 | 9.7 | 19.3 | 0.00 | 0.00 | 0.00 | 67 | 1017.0 |
| 20260506145554 | 27 | 205 | 9.7 | 14.5 | 0.00 | 0.00 | 0.00 | 69 | 1017.1 |
| 20260506145506 | 27 | 178 | 14.5 | 20.9 | 0.00 | 0.00 | 0.00 | 69 | 1017.1 |
| 20260506145054 | 27 | 183 | 12.9 | 20.9 | 0.00 | 0.00 | 0.00 | 69 | 1017.1 |
| 20260506144554 | 27 | 178 | 14.5 | 20.9 | 0.00 | 0.00 | 0.00 | 69 | 1017.1 |
| 20260506144054 | 27 | 153 | 12.9 | 19.3 | 0.00 | 0.00 | 0.00 | 70 | 1017.1 |
| 20260506143630 | 27 | 166 | 11.3 | 17.7 | 0.00 | 0.00 | 0.00 | 69 | 1017.1 |
| 20260506143554 | 27 | 166 | 11.3 | 17.7 | 0.00 | 0.00 | 0.00 | 69 | 1017.1 |
| 20260506143158 | 27 | 165 | 9.7 | 17.7 | 0.00 | 0.00 | 0.00 | 69 | 1017.1 |
| 20260506143054 | 27 | 165 | 9.7 | 17.7 | 0.00 | 0.00 | 0.00 | 69 | 1017.1 |
| 20260506142801 | 26 | 171 | 11.3 | 17.7 | 0.00 | 0.00 | 0.00 | 70 | 1017.1 |
| 20260506142554 | 26 | 171 | 11.3 | 17.7 | 0.00 | 0.00 | 0.00 | 70 | 1017.1 |
| 20260506142420 | 25 | 153 | 11.3 | 17.7 | 0.00 | 0.00 | 0.00 | 79 | 1017.1 |
| 20260506142308 | 25 | 153 | 11.3 | 17.7 | 0.00 | 0.00 | 0.00 | 79 | 1017.1 |
| 20260506142250 | 26 | 191 | 9.7 | 17.7 | 0.00 | 0.00 | 0.00 | 70 | 1017.2 |
| 20260506142213 | 25 | 153 | 11.3 | 17.7 | 0.00 | 0.00 | 0.00 | 79 | 1017.1 |
| 20260506142119 | 25 | 153 | 11.3 | 17.7 | 0.00 | 0.00 | 0.00 | 79 | 1017.1 |
| 20260506142054 | 26 | 191 | 9.7 | 17.7 | 0.00 | 0.00 | 0.00 | 70 | 1017.2 |
| 20260506142024 | 25 | 153 | 11.3 | 17.7 | 0.00 | 0.00 | 0.00 | 79 | 1017.1 |
| 20260506141930 | 25 | 153 | 11.3 | 17.7 | 0.00 | 0.00 | 0.00 | 79 | 1017.1 |
| 20260506141840 | 25 | 153 | 11.3 | 17.7 | 0.00 | 0.00 | 0.00 | 79 | 1017.1 |
| 20260506141809 | 26 | 202 | 9.7 | 14.5 | 0.00 | 0.00 | 0.00 | 72 | 1017.2 |
| 20260506141554 | 26 | 202 | 9.7 | 14.5 | 0.00 | 0.00 | 0.00 | 72 | 1017.2 |
| 20260506141309 | 26 | 169 | 9.7 | 16.1 | 0.00 | 0.00 | 0.00 | 73 | 1017.2 |
| 20260506141054 | 26 | 169 | 9.7 | 16.1 | 0.00 | 0.00 | 0.00 | 73 | 1017.2 |
| 20260506140554 | 26 | 194 | 9.7 | 16.1 | 0.00 | 0.00 | 0.00 | 74 | 1017.3 |
| 20260506140306 | 26 | 196 | 9.7 | 17.7 | 0.00 | 0.00 | 0.00 | 75 | 1017.3 |
| 20260506140157 | 26 | 196 | 9.7 | 17.7 | 0.00 | 0.00 | 0.00 | 75 | 1017.3 |
| 20260506140054 | 26 | 196 | 9.7 | 17.7 | 0.00 | 0.00 | 0.00 | 75 | 1017.3 |
| 20260506135554 | 25 | 147 | 11.3 | 17.7 | 0.00 | 0.00 | 0.00 | 77 | 1017.2 |
| 20260506135137 | 25 | 153 | 11.3 | 17.7 | 0.00 | 0.00 | 0.00 | 79 | 1017.1 |
| 20260506135054 | 25 | 153 | 11.3 | 17.7 | 0.00 | 0.00 | 0.00 | 79 | 1017.1 |
| 20260506134554 | 25 | 171 | 11.3 | 19.3 | 0.00 | 0.00 | 0.00 | 78 | 1017.1 |
| 20260506134217 | 25 | 144 | 11.3 | 17.7 | 0.00 | 0.00 | 0.00 | 80 | 1017.1 |
| 20260506134054 | 25 | 144 | 11.3 | 17.7 | 0.00 | 0.00 | 0.00 | 80 | 1017.1 |
| 20260506133956 | 24 | 150 | 11.3 | 16.1 | 0.00 | 0.00 | 0.00 | 81 | 1017.1 |
| 20260506133554 | 25 | 186 | 11.3 | 17.7 | 0.00 | 0.00 | 0.00 | 81 | 1017.1 |
| 20260506133129 | 24 | 150 | 11.3 | 16.1 | 0.00 | 0.00 | 0.00 | 81 | 1017.1 |
| 20260506133054 | 24 | 150 | 11.3 | 16.1 | 0.00 | 0.00 | 0.00 | 81 | 1017.1 |
| 20260506132722 | 24 | 139 | 11.3 | 17.7 | 0.00 | 0.00 | 0.00 | 81 | 1017.1 |
| 20260506132554 | 24 | 139 | 11.3 | 17.7 | 0.00 | 0.00 | 0.00 | 81 | 1017.1 |
| 20260506132405 | 24 | 132 | 11.3 | 19.3 | 0.00 | 0.00 | 0.00 | 81 | 1017.1 |
| 20260506132128 | 24 | 132 | 11.3 | 19.3 | 0.00 | 0.00 | 0.00 | 81 | 1017.1 |
| 20260506132054 | 24 | 132 | 11.3 | 19.3 | 0.00 | 0.00 | 0.00 | 81 | 1017.1 |
| 20260506131554 | 24 | 137 | 11.3 | 17.7 | 0.00 | 0.00 | 0.00 | 82 | 1017.0 |
| 20260506131215 | 24 | 146 | 9.7 | 16.1 | 0.00 | 0.00 | 0.00 | 82 | 1017.0 |
| 20260506131137 | 24 | 146 | 9.7 | 16.1 | 0.00 | 0.00 | 0.00 | 82 | 1017.0 |
| 20260506131054 | 24 | 146 | 9.7 | 16.1 | 0.00 | 0.00 | 0.00 | 82 | 1017.0 |
| 20260506130709 | 23 | 153 | 11.3 | 16.1 | 0.00 | 0.00 | 0.00 | 83 | 1016.8 |
| 20260506130554 | 23 | 153 | 11.3 | 16.1 | 0.00 | 0.00 | 0.00 | 83 | 1016.8 |
| 20260506130544 | 23 | 156 | 12.9 | 19.3 | 0.00 | 0.00 | 0.00 | 83 | 1016.8 |
| 20260506130138 | 23 | 156 | 12.9 | 19.3 | 0.00 | 0.00 | 0.00 | 83 | 1016.8 |
| 20260506130054 | 23 | 156 | 12.9 | 19.3 | 0.00 | 0.00 | 0.00 | 83 | 1016.8 |
| 20260506125554 | 23 | 151 | 12.9 | 22.5 | 0.00 | 0.00 | 0.00 | 84 | 1016.8 |
| 20260506125224 | 23 | 153 | 12.9 | 20.9 | 0.00 | 0.00 | 0.00 | 85 | 1016.7 |
| 20260506125054 | 23 | 153 | 12.9 | 20.9 | 0.00 | 0.00 | 0.00 | 85 | 1016.7 |
| 20260506124924 | 22 | 164 | 9.7 | 20.9 | 0.00 | 0.00 | 0.00 | 87 | 1016.4 |
| 20260506124554 | 23 | 148 | 12.9 | 22.5 | 0.00 | 0.00 | 0.00 | 85 | 1016.6 |
| 20260506124054 | 22 | 168 | 11.3 | 17.7 | 0.00 | 0.00 | 0.00 | 86 | 1016.5 |
| 20260506123625 | 22 | 164 | 9.7 | 20.9 | 0.00 | 0.00 | 0.00 | 87 | 1016.4 |
| 20260506123554 | 22 | 144 | 11.3 | 19.3 | 0.00 | 0.00 | 0.00 | 87 | 1016.4 |
| 20260506123054 | 22 | 164 | 9.7 | 20.9 | 0.00 | 0.00 | 0.00 | 87 | 1016.4 |
| 20260506122554 | 22 | 153 | 9.7 | 16.1 | 0.00 | 0.00 | 0.00 | 88 | 1016.5 |
| 20260506122518 | 21 | 109 | 6.4 | 12.9 | 0.00 | 0.00 | 0.00 | 90 | 1016.4 |
| 20260506122125 | 21 | 178 | 9.7 | 12.9 | 0.00 | 0.00 | 0.00 | 89 | 1016.6 |
| 20260506122054 | 21 | 178 | 9.7 | 12.9 | 0.00 | 0.00 | 0.00 | 89 | 1016.6 |
| 20260506121554 | 21 | 134 | 8.0 | 14.5 | 0.00 | 0.00 | 0.00 | 89 | 1016.3 |
| 20260506121159 | 21 | 126 | 6.4 | 12.9 | 0.00 | 0.00 | 0.00 | 89 | 1016.3 |
| 20260506121054 | 21 | 126 | 6.4 | 12.9 | 0.00 | 0.00 | 0.00 | 89 | 1016.3 |
| 20260506120554 | 21 | 109 | 6.4 | 12.9 | 0.00 | 0.00 | 0.00 | 90 | 1016.4 |
| 20260506120132 | 21 | 147 | 6.4 | 11.3 | 0.00 | 0.00 | 0.00 | 90 | 1016.3 |
| 20260506120054 | 21 | 147 | 6.4 | 11.3 | 0.00 | 0.00 | 0.00 | 90 | 1016.3 |
| 20260506115554 | 21 | 153 | 6.4 | 11.3 | 0.00 | 0.00 | 0.00 | 90 | 1016.2 |
| 20260506115429 | 20 | 156 | 6.4 | 11.3 | 0.00 | 0.00 | 0.00 | 91 | 1016.4 |
| 20260506115141 | 20 | 156 | 6.4 | 11.3 | 0.00 | 0.00 | 0.00 | 91 | 1016.4 |
| 20260506115054 | 20 | 156 | 6.4 | 11.3 | 0.00 | 0.00 | 0.00 | 91 | 1016.4 |
| 20260506114554 | 20 | 142 | 6.4 | 8.0 | 0.00 | 0.00 | 0.00 | 91 | 1016.2 |
| 20260506114054 | 20 | 146 | 6.4 | 9.7 | 0.00 | 0.00 | 0.00 | 91 | 1016.1 |
| 20260506113554 | 20 | 151 | 4.8 | 9.7 | 0.00 | 0.00 | 0.00 | 91 | 1016.1 |
| 20260506113054 | 20 | 151 | 4.8 | 9.7 | 0.00 | 0.00 | 0.00 | 91 | 1016.2 |
| 20260506112554 | 20 | 146 | 4.8 | 6.4 | 0.00 | 0.00 | 0.00 | 91 | 1016.1 |
| 20260506112054 | 19 | 133 | 4.8 | 6.4 | 0.00 | 0.00 | 0.00 | 91 | 1016.1 |
| 20260506111554 | 19 | 134 | 4.8 | 8.0 | 0.00 | 0.00 | 0.00 | 91 | 1016.1 |
| 20260506111054 | 19 | 144 | 4.8 | 8.0 | 0.00 | 0.00 | 0.00 | 90 | 1016.0 |
| 20260506110554 | 19 | 137 | 4.8 | 8.0 | 0.00 | 0.00 | 0.00 | 90 | 1016.0 |
| 20260506110054 | 19 | 142 | 4.8 | 8.0 | 0.00 | 0.00 | 0.00 | 90 | 1016.0 |
| 20260506105554 | 19 | 137 | 3.2 | 6.4 | 0.00 | 0.00 | 0.00 | 90 | 1015.9 |
| 20260506105054 | 19 | 141 | 4.8 | 6.4 | 0.00 | 0.00 | 0.00 | 90 | 1015.7 |
| 20260506104554 | 19 | 163 | 4.8 | 9.7 | 0.00 | 0.00 | 0.00 | 90 | 1015.7 |
| 20260506104359 | 18 | 123 | 4.8 | 8.0 | 0.00 | 0.00 | 0.00 | 89 | 1015.5 |
| 20260506104315 | 19 | 134 | 4.8 | 8.0 | 0.00 | 0.00 | 0.00 | 90 | 1015.5 |
| 20260506104054 | 19 | 146 | 4.8 | 8.0 | 0.00 | 0.00 | 0.00 | 90 | 1015.6 |
| 20260506103554 | 19 | 132 | 4.8 | 8.0 | 0.00 | 0.00 | 0.00 | 90 | 1015.6 |
| 20260506103054 | 19 | 134 | 4.8 | 8.0 | 0.00 | 0.00 | 0.00 | 90 | 1015.5 |
| 20260506102554 | 19 | 133 | 4.8 | 6.4 | 0.00 | 0.00 | 0.00 | 90 | 1015.5 |
| 20260506102054 | 19 | 148 | 4.8 | 6.4 | 0.00 | 0.00 | 0.00 | 90 | 1015.6 |
| 20260506101554 | 18 | 139 | 4.8 | 8.0 | 0.00 | 0.00 | 0.00 | 90 | 1015.6 |
| 20260506101054 | 18 | 149 | 4.8 | 6.4 | 0.00 | 0.00 | 0.00 | 90 | 1015.5 |
| 20260506100554 | 18 | 140 | 4.8 | 8.0 | 0.00 | 0.00 | 0.00 | 90 | 1015.5 |
| 20260506100055 | 18 | 123 | 4.8 | 8.0 | 0.00 | 0.00 | 0.00 | 89 | 1015.5 |
| 20260506095556 | 18 | 126 | 3.2 | 4.8 | 0.00 | 0.00 | 0.00 | 88 | 1015.6 |
| 20260506095055 | 18 | 126 | 3.2 | 4.8 | 0.00 | 0.00 | 0.00 | 88 | 1015.6 |
| 20260506094555 | 18 | 132 | 3.2 | 6.4 | 0.00 | 0.00 | 0.00 | 88 | 1015.6 |
| 20260506094055 | 19 | 146 | 3.2 | 4.8 | 0.00 | 0.00 | 0.00 | 87 | 1015.6 |
| 20260506093555 | 19 | 123 | 3.2 | 4.8 | 0.00 | 0.00 | 0.00 | 87 | 1015.6 |
| 20260506093055 | 19 | 137 | 3.2 | 4.8 | 0.00 | 0.00 | 0.00 | 86 | 1015.6 |
| 20260506092555 | 20 | 142 | 3.2 | 4.8 | 0.00 | 0.00 | 0.00 | 85 | 1015.4 |
| 20260506092055 | 20 | 123 | 3.2 | 4.8 | 0.00 | 0.00 | 0.00 | 85 | 1015.5 |
| 20260506091555 | 20 | 133 | 3.2 | 4.8 | 0.00 | 0.00 | 0.00 | 85 | 1015.4 |
| 20260506091339 | 20 | 137 | 3.2 | 4.8 | 0.00 | 0.00 | 0.00 | 85 | 1015.4 |
| 20260506091055 | 20 | 137 | 3.2 | 4.8 | 0.00 | 0.00 | 0.00 | 85 | 1015.4 |
| 20260506090555 | 20 | 157 | 3.2 | 8.0 | 0.00 | 0.00 | 0.00 | 85 | 1015.5 |
| 20260506090055 | 20 | 151 | 4.8 | 6.4 | 0.00 | 0.00 | 0.00 | 84 | 1015.4 |
| 20260506085555 | 20 | 158 | 4.8 | 9.7 | 0.00 | 0.00 | 0.00 | 84 | 1015.3 |
| 20260506085055 | 20 | 178 | 6.4 | 9.7 | 0.00 | 0.00 | 0.00 | 84 | 1015.4 |
| 20260506084555 | 20 | 150 | 6.4 | 11.3 | 0.00 | 0.00 | 0.00 | 84 | 1015.2 |
| 20260506084503 | 20 | 150 | 4.8 | 9.7 | 0.00 | 0.00 | 0.00 | 85 | 1015.2 |
| 20260506084055 | 20 | 157 | 4.8 | 9.7 | 0.00 | 0.00 | 0.00 | 84 | 1015.2 |
| 20260506083555 | 20 | 150 | 4.8 | 9.7 | 0.00 | 0.00 | 0.00 | 85 | 1015.2 |
| 20260506083055 | 19 | 188 | 4.8 | 9.7 | 0.00 | 0.00 | 0.00 | 86 | 1015.3 |
| 20260506082950 | 18 | 126 | 4.8 | 8.0 | 0.00 | 0.00 | 0.00 | 89 | 1015.4 |
| 20260506082555 | 19 | 168 | 4.8 | 8.0 | 0.00 | 0.00 | 0.00 | 87 | 1015.3 |
| 20260506082209 | 18 | 126 | 4.8 | 8.0 | 0.00 | 0.00 | 0.00 | 89 | 1015.4 |
| 20260506082055 | 18 | 126 | 4.8 | 8.0 | 0.00 | 0.00 | 0.00 | 89 | 1015.4 |
| 20260506081732 | 18 | 132 | 4.8 | 8.0 | 0.00 | 0.00 | 0.00 | 89 | 1015.3 |
| 20260506081555 | 18 | 132 | 4.8 | 8.0 | 0.00 | 0.00 | 0.00 | 89 | 1015.3 |
| 20260506081055 | 18 | 134 | 3.2 | 6.4 | 0.00 | 0.00 | 0.00 | 88 | 1015.2 |
| 20260506081049 | 18 | 139 | 1.6 | 6.4 | 0.00 | 0.00 | 0.00 | 86 | 1015.5 |
| 20260506080555 | 18 | 139 | 1.6 | 6.4 | 0.00 | 0.00 | 0.00 | 86 | 1015.5 |
| 20260506080127 | 18 | 142 | 3.2 | 4.8 | 0.00 | 0.00 | 0.00 | 87 | 1015.6 |
| 20260506073055 | 18 | 119 | 3.2 | 6.4 | 0.00 | 0.00 | 0.00 | 86 | 1015.5 |
| 20260506072555 | 18 | 148 | 3.2 | 4.8 | 0.00 | 0.00 | 0.00 | 86 | 1015.5 |
| 20260506072055 | 18 | 144 | 3.2 | 3.2 | 0.00 | 0.00 | 0.00 | 85 | 1015.6 |
| 20260506071555 | 18 | 142 | 3.2 | 6.4 | 0.00 | 0.00 | 0.00 | 85 | 1015.7 |
| 20260506071550 | 18 | 157 | 3.2 | 6.4 | 0.00 | 0.00 | 0.00 | 85 | 1015.7 |
| 20260506071129 | 18 | 137 | 3.2 | 4.8 | 0.00 | 0.00 | 0.00 | 85 | 1015.7 |
| 20260506071055 | 18 | 137 | 3.2 | 4.8 | 0.00 | 0.00 | 0.00 | 85 | 1015.7 |
| 20260506070555 | 18 | 140 | 3.2 | 4.8 | 0.00 | 0.00 | 0.00 | 85 | 1015.7 |
| 20260506062055 | 18 | 126 | 0.0 | 3.2 | 0.00 | 0.00 | 0.00 | 83 | 1016.0 |
| 20260506061555 | 18 | 178 | 1.6 | 1.6 | 0.00 | 0.00 | 0.00 | 83 | 1016.1 |
| 20260506061055 | 18 | 137 | 1.6 | 3.2 | 0.00 | 0.00 | 0.00 | 82 | 1016.0 |
| 20260506060555 | 19 | 144 | 1.6 | 3.2 | 0.00 | 0.00 | 0.00 | 82 | 1016.0 |
| 20260506051055 | 20 | 165 | 3.2 | 6.4 | 0.00 | 0.00 | 0.00 | 76 | 1016.4 |
| 20260506050555 | 21 | 151 | 3.2 | 4.8 | 0.00 | 0.00 | 0.00 | 75 | 1016.5 |
| 20260506045055 | 21 | 141 | 3.2 | 4.8 | 0.00 | 0.00 | 0.00 | 74 | 1016.7 |
| 20260506044558 | 21 | 137 | 3.2 | 8.0 | 0.00 | 0.00 | 0.00 | 73 | 1016.7 |
| 20260506044555 | 21 | 133 | 3.2 | 6.4 | 0.00 | 0.00 | 0.00 | 73 | 1016.7 |
| 20260506044055 | 21 | 137 | 3.2 | 8.0 | 0.00 | 0.00 | 0.00 | 73 | 1016.7 |
| 20260506043555 | 21 | 178 | 3.2 | 4.8 | 0.00 | 0.00 | 0.00 | 73 | 1016.6 |
| 20260506043055 | 21 | 131 | 3.2 | 6.4 | 0.00 | 0.00 | 0.00 | 72 | 1016.6 |
| 20260506042555 | 21 | 137 | 3.2 | 6.4 | 0.00 | 0.00 | 0.00 | 72 | 1016.7 |
| 20260506042055 | 22 | 153 | 4.8 | 8.0 | 0.00 | 0.00 | 0.00 | 72 | 1016.5 |
| 20260506041555 | 22 | 168 | 4.8 | 8.0 | 0.00 | 0.00 | 0.00 | 72 | 1016.5 |
| 20260506041140 | 22 | 157 | 4.8 | 9.7 | 0.00 | 0.00 | 0.00 | 71 | 1016.4 |
| 20260506041055 | 22 | 157 | 4.8 | 9.7 | 0.00 | 0.00 | 0.00 | 71 | 1016.4 |
| 20260506040555 | 22 | 184 | 4.8 | 9.7 | 0.00 | 0.00 | 0.00 | 71 | 1016.3 |
| 20260506040330 | 22 | 149 | 4.8 | 9.7 | 0.00 | 0.00 | 0.00 | 72 | 1016.4 |
| 20260506040055 | 22 | 149 | 4.8 | 9.7 | 0.00 | 0.00 | 0.00 | 72 | 1016.4 |
| 20260506035555 | 22 | 130 | 6.4 | 11.3 | 0.00 | 0.00 | 0.00 | 71 | 1016.4 |
| 20260506035055 | 22 | 155 | 6.4 | 11.3 | 0.00 | 0.00 | 0.00 | 72 | 1016.4 |
| 20260506034555 | 22 | 129 | 6.4 | 11.3 | 0.00 | 0.00 | 0.00 | 71 | 1016.6 |
| 20260506034055 | 22 | 121 | 6.4 | 11.3 | 0.00 | 0.00 | 0.00 | 71 | 1016.5 |
| 20260506033706 | 22 | 150 | 6.4 | 9.7 | 0.00 | 0.00 | 0.00 | 70 | 1016.5 |
| 20260506033555 | 22 | 137 | 6.4 | 11.3 | 0.00 | 0.00 | 0.00 | 71 | 1016.4 |
| 20260506033055 | 22 | 150 | 6.4 | 9.7 | 0.00 | 0.00 | 0.00 | 70 | 1016.5 |
| 20260506032803 | 22 | 126 | 6.4 | 12.9 | 0.00 | 0.00 | 0.00 | 70 | 1016.4 |
| 20260506032555 | 22 | 146 | 6.4 | 11.3 | 0.00 | 0.00 | 0.00 | 70 | 1016.4 |
| 20260506032055 | 22 | 126 | 6.4 | 12.9 | 0.00 | 0.00 | 0.00 | 70 | 1016.4 |
| 20260506031555 | 22 | 117 | 6.4 | 11.3 | 0.00 | 0.00 | 0.00 | 69 | 1016.4 |
| 20260506031211 | 22 | 140 | 8.0 | 11.3 | 0.00 | 0.00 | 0.00 | 69 | 1016.4 |
| 20260506031055 | 22 | 140 | 8.0 | 11.3 | 0.00 | 0.00 | 0.00 | 69 | 1016.4 |
| 20260506030555 | 22 | 129 | 6.4 | 14.5 | 0.00 | 0.00 | 0.00 | 69 | 1016.5 |
| 20260506030420 | 22 | 137 | 8.0 | 11.3 | 0.00 | 0.00 | 0.00 | 69 | 1016.6 |
| 20260506030055 | 22 | 137 | 8.0 | 11.3 | 0.00 | 0.00 | 0.00 | 69 | 1016.6 |
| 20260506025555 | 22 | 135 | 6.4 | 12.9 | 0.00 | 0.00 | 0.00 | 68 | 1016.4 |
| 20260506025055 | 22 | 137 | 6.4 | 11.3 | 0.00 | 0.00 | 0.00 | 68 | 1016.4 |
| 20260506024555 | 22 | 137 | 6.4 | 9.7 | 0.00 | 0.00 | 0.00 | 67 | 1016.4 |
| 20260506024055 | 22 | 133 | 6.4 | 12.9 | 0.00 | 0.00 | 0.00 | 67 | 1016.4 |
| 20260506023555 | 23 | 110 | 8.0 | 12.9 | 0.00 | 0.00 | 0.00 | 67 | 1016.3 |
| 20260506023055 | 23 | 138 | 8.0 | 14.5 | 0.00 | 0.00 | 0.00 | 66 | 1016.3 |
| 20260506022717 | 23 | 134 | 8.0 | 14.5 | 0.00 | 0.00 | 0.00 | 65 | 1016.3 |
| 20260506022555 | 23 | 116 | 9.7 | 17.7 | 0.00 | 0.00 | 0.00 | 66 | 1016.2 |
| 20260506022055 | 23 | 134 | 8.0 | 14.5 | 0.00 | 0.00 | 0.00 | 65 | 1016.3 |
| 20260506021630 | 23 | 167 | 6.4 | 11.3 | 0.00 | 0.00 | 0.00 | 64 | 1016.2 |
| 20260506021555 | 23 | 121 | 6.4 | 14.5 | 0.00 | 0.00 | 0.00 | 65 | 1016.3 |
| 20260506021055 | 23 | 167 | 6.4 | 11.3 | 0.00 | 0.00 | 0.00 | 64 | 1016.2 |
| 20260506020555 | 23 | 119 | 6.4 | 14.5 | 0.00 | 0.00 | 0.00 | 64 | 1016.2 |
| 20260506020553 | 23 | 117 | 6.4 | 12.9 | 0.00 | 0.00 | 0.00 | 63 | 1016.1 |
| 20260506020055 | 23 | 117 | 6.4 | 12.9 | 0.00 | 0.00 | 0.00 | 63 | 1016.1 |
| 20260506015556 | 23 | 140 | 4.8 | 9.7 | 0.00 | 0.00 | 0.00 | 63 | 1016.1 |
| 20260506015510 | 23 | 137 | 6.4 | 11.3 | 0.00 | 0.00 | 0.00 | 63 | 1016.1 |
| 20260506015056 | 23 | 137 | 6.4 | 11.3 | 0.00 | 0.00 | 0.00 | 63 | 1016.1 |
| 20260506014558 | 24 | 142 | 8.0 | 14.5 | 0.00 | 0.00 | 0.00 | 63 | 1015.9 |
| 20260506014556 | 24 | 93 | 8.0 | 12.9 | 0.00 | 0.00 | 0.00 | 63 | 1015.9 |
| 20260506014056 | 24 | 142 | 8.0 | 14.5 | 0.00 | 0.00 | 0.00 | 63 | 1015.9 |
| 20260506013556 | 24 | 124 | 8.0 | 14.5 | 0.00 | 0.00 | 0.00 | 63 | 1016.0 |
| 20260506013511 | 24 | 113 | 6.4 | 16.1 | 0.00 | 0.00 | 0.00 | 64 | 1015.9 |
| 20260506013056 | 24 | 113 | 6.4 | 16.1 | 0.00 | 0.00 | 0.00 | 64 | 1015.9 |
| 20260506013018 | 24 | 171 | 4.8 | 11.3 | 0.00 | 0.00 | 0.00 | 64 | 1015.8 |
| 20260506012556 | 24 | 171 | 4.8 | 11.3 | 0.00 | 0.00 | 0.00 | 64 | 1015.8 |
| 20260506012500 | 24 | 98 | 6.4 | 8.0 | 0.00 | 0.00 | 0.00 | 63 | 1015.6 |
| 20260506012403 | 24 | 98 | 6.4 | 8.0 | 0.00 | 0.00 | 0.00 | 63 | 1015.6 |
| 20260506012056 | 24 | 98 | 6.4 | 8.0 | 0.00 | 0.00 | 0.00 | 63 | 1015.6 |
| 20260506012043 | 24 | 140 | 4.8 | 11.3 | 0.00 | 0.00 | 0.00 | 63 | 1015.5 |
| 20260506011556 | 24 | 107 | 6.4 | 14.5 | 0.00 | 0.00 | 0.00 | 63 | 1015.6 |
| 20260506011056 | 24 | 140 | 4.8 | 11.3 | 0.00 | 0.00 | 0.00 | 63 | 1015.5 |
| 20260506010556 | 24 | 119 | 4.8 | 11.3 | 0.00 | 0.00 | 0.00 | 63 | 1015.5 |
| 20260506010512 | 25 | 59 | 4.8 | 6.4 | 0.00 | 0.00 | 0.00 | 63 | 1015.4 |
| 20260506010056 | 25 | 59 | 4.8 | 6.4 | 0.00 | 0.00 | 0.00 | 63 | 1015.4 |
| 20260506005556 | 25 | 93 | 8.0 | 12.9 | 0.00 | 0.00 | 0.00 | 62 | 1015.3 |
| 20260506005056 | 25 | 128 | 8.0 | 14.5 | 0.00 | 0.00 | 0.00 | 63 | 1015.1 |
| 20260506004556 | 25 | 99 | 8.0 | 16.1 | 0.00 | 0.00 | 0.00 | 62 | 1014.9 |
| 20260506004056 | 25 | 126 | 11.3 | 16.1 | 0.00 | 0.00 | 0.00 | 62 | 1014.7 |
| 20260506003816 | 25 | 126 | 12.9 | 22.5 | 0.00 | 0.00 | 0.00 | 62 | 1014.6 |
| 20260506003556 | 25 | 126 | 12.9 | 22.5 | 0.00 | 0.00 | 0.00 | 62 | 1014.6 |
| 20260506003056 | 25 | 86 | 12.9 | 20.9 | 0.00 | 0.00 | 0.00 | 62 | 1014.6 |
| 20260506002556 | 25 | 124 | 14.5 | 22.5 | 0.00 | 0.00 | 0.00 | 61 | 1014.3 |
| 20260506002404 | 26 | 140 | 12.9 | 27.4 | 0.00 | 0.00 | 0.00 | 61 | 1014.4 |
| 20260506002056 | 26 | 140 | 12.9 | 27.4 | 0.00 | 0.00 | 0.00 | 61 | 1014.4 |
| 20260506001825 | 26 | 134 | 12.9 | 24.1 | 0.00 | 0.00 | 0.00 | 59 | 1014.0 |
| 20260506001556 | 26 | 139 | 12.9 | 17.7 | 0.00 | 0.00 | 0.00 | 60 | 1014.4 |
| 20260506001056 | 26 | 134 | 12.9 | 24.1 | 0.00 | 0.00 | 0.00 | 59 | 1014.0 |
| 20260506000556 | 26 | 139 | 9.7 | 20.9 | 0.00 | 0.00 | 0.00 | 59 | 1014.0 |
| 20260506000056 | 26 | 121 | 9.7 | 17.7 | 0.00 | 0.00 | 0.00 | 58 | 1013.9 |
| 20260505235749 | 27 | 128 | 4.8 | 14.5 | 0.00 | 0.00 | 0.00 | 57 | 1013.8 |
| 20260505235556 | 27 | 110 | 8.0 | 16.1 | 0.00 | 0.00 | 0.00 | 57 | 1013.8 |
| 20260505235056 | 27 | 128 | 4.8 | 14.5 | 0.00 | 0.00 | 0.00 | 57 | 1013.8 |
| 20260505234924 | 27 | 124 | 4.8 | 11.3 | 0.00 | 0.00 | 0.00 | 56 | 1013.6 |
| 20260505234556 | 27 | 124 | 4.8 | 11.3 | 0.00 | 0.00 | 0.00 | 56 | 1013.6 |
| 20260505234511 | 27 | 126 | 4.8 | 9.7 | 0.00 | 0.00 | 0.00 | 56 | 1013.5 |
| 20260505234056 | 27 | 126 | 4.8 | 9.7 | 0.00 | 0.00 | 0.00 | 56 | 1013.5 |
| 20260505233556 | 27 | 105 | 6.4 | 9.7 | 0.00 | 0.00 | 0.00 | 55 | 1013.5 |
| 20260505233331 | 27 | 124 | 8.0 | 14.5 | 0.00 | 0.00 | 0.00 | 55 | 1013.4 |
| 20260505233056 | 27 | 124 | 8.0 | 14.5 | 0.00 | 0.00 | 0.00 | 55 | 1013.4 |
| 20260505232556 | 27 | 137 | 8.0 | 16.1 | 0.00 | 0.00 | 0.00 | 54 | 1013.6 |
| 20260505232056 | 27 | 117 | 8.0 | 16.1 | 0.00 | 0.00 | 0.00 | 54 | 1013.5 |
| 20260505231556 | 28 | 139 | 8.0 | 14.5 | 0.00 | 0.00 | 0.00 | 53 | 1013.5 |
| 20260505231056 | 28 | 90 | 9.7 | 17.7 | 0.00 | 0.00 | 0.00 | 52 | 1013.5 |
| 20260505230556 | 28 | 121 | 8.0 | 17.7 | 0.00 | 0.00 | 0.00 | 51 | 1013.6 |
| 20260505230228 | 29 | 146 | 4.8 | 12.9 | 0.00 | 0.00 | 0.00 | 47 | 1013.6 |
| 20260505230056 | 29 | 146 | 4.8 | 12.9 | 0.00 | 0.00 | 0.00 | 47 | 1013.6 |
| 20260505225556 | 29 | 123 | 3.2 | 9.7 | 0.00 | 0.00 | 0.00 | 45 | 1013.6 |
| 20260505225445 | 29 | 80 | 3.2 | 6.4 | 0.00 | 0.00 | 0.00 | 44 | 1013.6 |
| 20260505225056 | 29 | 80 | 3.2 | 6.4 | 0.00 | 0.00 | 0.00 | 44 | 1013.6 |
| 20260505224556 | 29 | 55 | 4.8 | 8.0 | 0.00 | 0.00 | 0.00 | 45 | 1013.6 |
| 20260505224056 | 29 | 123 | 4.8 | 8.0 | 0.00 | 0.00 | 0.00 | 44 | 1013.7 |
| 20260505223556 | 29 | 137 | 6.4 | 6.4 | 0.00 | 0.00 | 0.00 | 44 | 1013.7 |
| 20260505223404 | 29 | 88 | 6.4 | 11.3 | 0.00 | 0.00 | 0.00 | 44 | 1013.7 |
| 20260505223056 | 29 | 88 | 6.4 | 11.3 | 0.00 | 0.00 | 0.00 | 44 | 1013.7 |
| 20260505222556 | 29 | 71 | 6.4 | 12.9 | 0.00 | 0.00 | 0.00 | 44 | 1013.9 |
| 20260505222521 | 29 | 51 | 4.8 | 12.9 | 0.00 | 0.00 | 0.00 | 43 | 1013.8 |
| 20260505222056 | 29 | 51 | 4.8 | 12.9 | 0.00 | 0.00 | 0.00 | 43 | 1013.8 |
| 20260505221556 | 29 | 83 | 6.4 | 9.7 | 0.00 | 0.00 | 0.00 | 43 | 1013.8 |
| 20260505221336 | 29 | 188 | 8.0 | 12.9 | 0.00 | 0.00 | 0.00 | 43 | 1013.8 |
| 20260505221056 | 29 | 188 | 8.0 | 12.9 | 0.00 | 0.00 | 0.00 | 43 | 1013.8 |
| 20260505220556 | 30 | 128 | 9.7 | 16.1 | 0.00 | 0.00 | 0.00 | 43 | 1013.6 |
| 20260505220505 | 30 | 66 | 6.4 | 14.5 | 0.00 | 0.00 | 0.00 | 43 | 1013.6 |
| 20260505220056 | 30 | 66 | 6.4 | 14.5 | 0.00 | 0.00 | 0.00 | 43 | 1013.6 |
| 20260505215556 | 30 | 80 | 6.4 | 12.9 | 0.00 | 0.00 | 0.00 | 43 | 1013.6 |
| 20260505215056 | 30 | 76 | 8.0 | 11.3 | 0.00 | 0.00 | 0.00 | 43 | 1013.6 |
| 20260505214744 | 30 | 84 | 4.8 | 12.9 | 0.00 | 0.00 | 0.00 | 43 | 1013.5 |
| 20260505214556 | 30 | 101 | 8.0 | 14.5 | 0.00 | 0.00 | 0.00 | 42 | 1013.6 |
| 20260505214056 | 30 | 61 | 6.4 | 11.3 | 0.00 | 0.00 | 0.00 | 42 | 1013.6 |
| 20260505213556 | 30 | 54 | 4.8 | 14.5 | 0.00 | 0.00 | 0.00 | 42 | 1013.6 |
| 20260505213226 | 30 | 84 | 4.8 | 12.9 | 0.00 | 0.00 | 0.00 | 43 | 1013.5 |
| 20260505213056 | 30 | 84 | 4.8 | 12.9 | 0.00 | 0.00 | 0.00 | 43 | 1013.5 |
| 20260505212556 | 30 | 61 | 6.4 | 11.3 | 0.00 | 0.00 | 0.00 | 42 | 1013.6 |
| 20260505212328 | 30 | 116 | 6.4 | 11.3 | 0.00 | 0.00 | 0.00 | 43 | 1013.5 |
| 20260505212056 | 30 | 116 | 6.4 | 11.3 | 0.00 | 0.00 | 0.00 | 43 | 1013.5 |
| 20260505211556 | 30 | 140 | 6.4 | 12.9 | 0.00 | 0.00 | 0.00 | 43 | 1013.5 |
| 20260505211056 | 30 | 119 | 6.4 | 12.9 | 0.00 | 0.00 | 0.00 | 43 | 1013.7 |
| 20260505210556 | 30 | 132 | 6.4 | 17.7 | 0.00 | 0.00 | 0.00 | 43 | 1013.6 |
| 20260505210056 | 30 | 97 | 4.8 | 12.9 | 0.00 | 0.00 | 0.00 | 42 | 1013.6 |
| 20260505205556 | 30 | 137 | 3.2 | 9.7 | 0.00 | 0.00 | 0.00 | 39 | 1013.6 |
| 20260505205306 | 30 | 221 | 3.2 | 6.4 | 0.00 | 0.00 | 0.00 | 40 | 1013.6 |
| 20260505205111 | 30 | 234 | 6.4 | 9.7 | 0.00 | 0.00 | 0.00 | 41 | 1013.6 |
| 20260505205056 | 30 | 221 | 3.2 | 6.4 | 0.00 | 0.00 | 0.00 | 40 | 1013.6 |
| 20260505204556 | 30 | 265 | 4.8 | 11.3 | 0.00 | 0.00 | 0.00 | 41 | 1013.6 |
| 20260505204143 | 30 | 234 | 6.4 | 9.7 | 0.00 | 0.00 | 0.00 | 41 | 1013.6 |
| 20260505204056 | 30 | 234 | 6.4 | 9.7 | 0.00 | 0.00 | 0.00 | 41 | 1013.6 |
| 20260505203812 | 30 | 104 | 9.7 | 17.7 | 0.00 | 0.00 | 0.00 | 42 | 1013.7 |
| 20260505203632 | 30 | 104 | 9.7 | 17.7 | 0.00 | 0.00 | 0.00 | 42 | 1013.7 |
| 20260505203556 | 30 | 104 | 9.7 | 17.7 | 0.00 | 0.00 | 0.00 | 42 | 1013.7 |
| 20260505203239 | 30 | 59 | 8.0 | 16.1 | 0.00 | 0.00 | 0.00 | 42 | 1013.8 |
| 20260505203056 | 30 | 59 | 8.0 | 16.1 | 0.00 | 0.00 | 0.00 | 42 | 1013.8 |
| 20260505202556 | 30 | 168 | 8.0 | 16.1 | 0.00 | 0.00 | 0.00 | 43 | 1013.9 |
| 20260505202147 | 30 | 140 | 6.4 | 16.1 | 0.00 | 0.00 | 0.00 | 41 | 1013.8 |
| 20260505202056 | 30 | 140 | 6.4 | 16.1 | 0.00 | 0.00 | 0.00 | 41 | 1013.8 |
| 20260505201642 | 31 | 55 | 6.4 | 12.9 | 0.00 | 0.00 | 0.00 | 42 | 1013.8 |
| 20260505201556 | 31 | 55 | 6.4 | 12.9 | 0.00 | 0.00 | 0.00 | 42 | 1013.8 |
| 20260505201056 | 31 | 247 | 6.4 | 14.5 | 0.00 | 0.00 | 0.00 | 41 | 1013.8 |
| 20260505200556 | 30 | 182 | 6.4 | 14.5 | 0.00 | 0.00 | 0.00 | 40 | 1013.9 |
| 20260505200056 | 30 | 221 | 9.7 | 17.7 | 0.00 | 0.00 | 0.00 | 42 | 1013.9 |
| 20260505195556 | 30 | 228 | 9.7 | 17.7 | 0.00 | 0.00 | 0.00 | 43 | 1013.9 |
| 20260505195056 | 30 | 202 | 8.0 | 17.7 | 0.00 | 0.00 | 0.00 | 42 | 1014.0 |
| 20260505194556 | 30 | 196 | 8.0 | 16.1 | 0.00 | 0.00 | 0.00 | 43 | 1014.1 |
| 20260505194159 | 30 | 209 | 6.4 | 16.1 | 0.00 | 0.00 | 0.00 | 43 | 1014.1 |
| 20260505194056 | 30 | 209 | 6.4 | 16.1 | 0.00 | 0.00 | 0.00 | 43 | 1014.1 |
| 20260505193556 | 30 | 22 | 11.3 | 14.5 | 0.00 | 0.00 | 0.00 | 44 | 1014.3 |
| 20260505193056 | 30 | 173 | 11.3 | 22.5 | 0.00 | 0.00 | 0.00 | 44 | 1014.4 |
| 20260505192556 | 30 | 187 | 8.0 | 17.7 | 0.00 | 0.00 | 0.00 | 45 | 1014.4 |
| 20260505192150 | 30 | 101 | 8.0 | 16.1 | 0.00 | 0.00 | 0.00 | 45 | 1014.3 |
| 20260505192056 | 30 | 101 | 8.0 | 16.1 | 0.00 | 0.00 | 0.00 | 45 | 1014.3 |
| 20260505191556 | 30 | 64 | 8.0 | 16.1 | 0.00 | 0.00 | 0.00 | 44 | 1014.5 |
| 20260505191315 | 30 | 309 | 8.0 | 16.1 | 0.00 | 0.00 | 0.00 | 44 | 1014.6 |
| 20260505191216 | 30 | 309 | 8.0 | 16.1 | 0.00 | 0.00 | 0.00 | 44 | 1014.6 |
| 20260505191056 | 30 | 309 | 8.0 | 16.1 | 0.00 | 0.00 | 0.00 | 44 | 1014.6 |
| 20260505190556 | 30 | 23 | 9.7 | 14.5 | 0.00 | 0.00 | 0.00 | 46 | 1014.9 |
| 20260505190056 | 30 | 28 | 8.0 | 16.1 | 0.00 | 0.00 | 0.00 | 46 | 1014.9 |
| 20260505185556 | 29 | 23 | 6.4 | 12.9 | 0.00 | 0.00 | 0.00 | 46 | 1014.9 |
| 20260505185145 | 29 | 134 | 8.0 | 11.3 | 0.00 | 0.00 | 0.00 | 46 | 1015.0 |
| 20260505185056 | 29 | 134 | 8.0 | 11.3 | 0.00 | 0.00 | 0.00 | 46 | 1015.0 |
| 20260505184556 | 29 | 110 | 9.7 | 16.1 | 0.00 | 0.00 | 0.00 | 47 | 1015.1 |
| 20260505184324 | 29 | 121 | 8.0 | 20.9 | 0.00 | 0.00 | 0.00 | 48 | 1015.1 |
| 20260505184056 | 29 | 121 | 8.0 | 20.9 | 0.00 | 0.00 | 0.00 | 48 | 1015.1 |
| 20260505183556 | 28 | 178 | 8.0 | 11.3 | 0.00 | 0.00 | 0.00 | 47 | 1015.0 |
| 20260505183056 | 28 | 202 | 9.7 | 16.1 | 0.00 | 0.00 | 0.00 | 46 | 1015.2 |
| 20260505182556 | 28 | 185 | 11.3 | 17.7 | 0.00 | 0.00 | 0.00 | 47 | 1015.3 |
| 20260505182222 | 29 | 153 | 12.9 | 22.5 | 0.00 | 0.00 | 0.00 | 48 | 1015.3 |
| 20260505182056 | 29 | 153 | 12.9 | 22.5 | 0.00 | 0.00 | 0.00 | 48 | 1015.3 |
| 20260505181556 | 29 | 133 | 9.7 | 24.1 | 0.00 | 0.00 | 0.00 | 48 | 1015.3 |
| 20260505181310 | 29 | 182 | 4.8 | 12.9 | 0.00 | 0.00 | 0.00 | 49 | 1015.4 |
| 20260505181056 | 29 | 182 | 4.8 | 12.9 | 0.00 | 0.00 | 0.00 | 49 | 1015.4 |
| 20260505180556 | 28 | 346 | 6.4 | 14.5 | 0.00 | 0.00 | 0.00 | 49 | 1015.4 |
| 20260505180334 | 28 | 117 | 9.7 | 19.3 | 0.00 | 0.00 | 0.00 | 49 | 1015.4 |
| 20260505180056 | 28 | 117 | 9.7 | 19.3 | 0.00 | 0.00 | 0.00 | 49 | 1015.4 |
| 20260505175557 | 28 | 196 | 11.3 | 20.9 | 0.00 | 0.00 | 0.00 | 49 | 1015.5 |
| 20260505175209 | 28 | 130 | 11.3 | 17.7 | 0.00 | 0.00 | 0.00 | 52 | 1015.5 |
| 20260505175057 | 28 | 130 | 11.3 | 17.7 | 0.00 | 0.00 | 0.00 | 52 | 1015.5 |
| 20260505174556 | 28 | 138 | 12.9 | 19.3 | 0.00 | 0.00 | 0.00 | 52 | 1015.7 |
| 20260505174057 | 28 | 135 | 9.7 | 20.9 | 0.00 | 0.00 | 0.00 | 52 | 1015.8 |
| 20260505173749 | 28 | 113 | 9.7 | 14.5 | 0.00 | 0.00 | 0.00 | 51 | 1015.8 |
| 20260505173557 | 28 | 113 | 9.7 | 14.5 | 0.00 | 0.00 | 0.00 | 51 | 1015.8 |
| 20260505173237 | 28 | 87 | 11.3 | 24.1 | 0.00 | 0.00 | 0.00 | 51 | 1016.0 |
| 20260505173057 | 28 | 87 | 11.3 | 24.1 | 0.00 | 0.00 | 0.00 | 51 | 1016.0 |
| 20260505172557 | 28 | 32 | 11.3 | 17.7 | 0.00 | 0.00 | 0.00 | 52 | 1016.0 |
| 20260505172208 | 28 | 77 | 12.9 | 17.7 | 0.00 | 0.00 | 0.00 | 52 | 1016.1 |
| 20260505172057 | 28 | 77 | 12.9 | 17.7 | 0.00 | 0.00 | 0.00 | 52 | 1016.1 |
| 20260505171557 | 27 | 63 | 11.3 | 17.7 | 0.00 | 0.00 | 0.00 | 54 | 1016.2 |
| 20260505171209 | 27 | 83 | 11.3 | 20.9 | 0.00 | 0.00 | 0.00 | 52 | 1016.2 |
| 20260505171057 | 27 | 83 | 11.3 | 20.9 | 0.00 | 0.00 | 0.00 | 52 | 1016.2 |
| 20260505170557 | 27 | 129 | 12.9 | 19.3 | 0.00 | 0.00 | 0.00 | 52 | 1016.3 |
| 20260505170057 | 27 | 146 | 11.3 | 30.6 | 0.00 | 0.00 | 0.00 | 52 | 1016.1 |
| 20260505165557 | 27 | 159 | 9.7 | 27.4 | 0.00 | 0.00 | 0.00 | 53 | 1016.2 |
| 20260505165220 | 27 | 169 | 11.3 | 17.7 | 0.00 | 0.00 | 0.00 | 51 | 1016.2 |
| 20260505165057 | 27 | 169 | 11.3 | 17.7 | 0.00 | 0.00 | 0.00 | 51 | 1016.2 |
| 20260505164557 | 27 | 159 | 9.7 | 19.3 | 0.00 | 0.00 | 0.00 | 52 | 1016.2 |
| 20260505164057 | 27 | 148 | 9.7 | 14.5 | 0.00 | 0.00 | 0.00 | 53 | 1016.1 |
| 20260505163557 | 27 | 123 | 12.9 | 20.9 | 0.00 | 0.00 | 0.00 | 53 | 1016.2 |
| 20260505163239 | 27 | 61 | 12.9 | 24.1 | 0.00 | 0.00 | 0.00 | 54 | 1016.2 |
| 20260505163057 | 27 | 61 | 12.9 | 24.1 | 0.00 | 0.00 | 0.00 | 54 | 1016.2 |
| 20260505162933 | 26 | 150 | 9.7 | 14.5 | 0.00 | 0.00 | 0.00 | 57 | 1016.3 |
| 20260505162557 | 27 | 90 | 11.3 | 20.9 | 0.00 | 0.00 | 0.00 | 53 | 1016.3 |
| 20260505162216 | 27 | 169 | 11.3 | 20.9 | 0.00 | 0.00 | 0.00 | 53 | 1016.3 |
| 20260505162057 | 27 | 169 | 11.3 | 20.9 | 0.00 | 0.00 | 0.00 | 53 | 1016.3 |
| 20260505161557 | 27 | 158 | 9.7 | 22.5 | 0.00 | 0.00 | 0.00 | 54 | 1016.3 |
| 20260505161057 | 26 | 150 | 9.7 | 14.5 | 0.00 | 0.00 | 0.00 | 57 | 1016.3 |
| 20260505160557 | 26 | 151 | 11.3 | 16.1 | 0.00 | 0.00 | 0.00 | 56 | 1016.3 |
| 20260505160205 | 26 | 146 | 11.3 | 19.3 | 0.00 | 0.00 | 0.00 | 57 | 1016.4 |